Location: Dover
(48.8500°N, 53.9833°W)
Time: 16:28:48
(UTC+00:00)

Cosmos 1844 Rocket - Pass Details

Date: 14 November 2025
Orbit: 822 x 844 km, 71.0° (Epoch: 13 December)

Event Time Altitude Azimuth Distance (km) Brightness Sun altitude
Rises 20:41:49 0° 233° (SW) 3,350 7.5 -7.7°
Reaches altitude 10° 20:44:24 10° 241° (WSW) 2,422 6.7 -8.1°
Maximum altitude 20:49:33 38° 309° (NW) 1,252 4.0 -8.9°
Drops below altitude 10° 20:54:44 10° 17° (NNE) 2,445 4.8 -9.7°
Enters shadow 20:57:22 - 26° (NNE) 3,384 5.4 -10.1°
